Regional Weather Roundup
Issued by NWS Spokane, WA

Home | Current Version | Previous Version | Text Only | Print | Product List | Glossary On
Versions: 1 2 3 4 5 6 7 8 9 10 11 12 13 14 15 16 17 18 19 20 21 22 23 24 25 26 27 28 29 30 31 32 33 34 35 36 37 38 39 40 41 42 43 44 45 46 47 48 49 50
000
NZUS01 KOTX 281110
RWROTX
EASTERN WASHINGTON/NORTHERN IDAHO ROUNDUP
NATIONAL WEATHER SERVICE, SPOKANE WA
400 AM PDT TUE APR 28 2015

Note: "fair" indicated few or no clouds below 12,000 feet with no
significant weather and/or obstructions to visibility.

...NORTHEAST WASHINGTON AND NORTHERN IDAHO PANHANDLE...

CITY           SKY/WX    TMP DP  RH WIND       PRES   REMARKS
SPOKANE INTL   MOCLDY    48  36  63 NE7       30.10F
SPOKANE DOWNTO CLEAR     43  37  79 CALM      30.11F
COEUR D ALENE  CLEAR     43  37  81 E8        30.14F
DEER PARK      CLEAR     48  36  63 N5        30.11F
SANDPOINT      PTCLDY    36  36 100 CALM      30.15F
BONNERS FERRY  FAIR      39  36  87 CALM      30.17F

...SOUTHEAST WASHINGTON AND SOUTHERN IDAHO PANHANDLE...

CITY           SKY/WX    TMP DP  RH WIND       PRES   REMARKS
WALLA WALLA    CLEAR     51  37  58 SE5       30.02F
PULLMAN/MOSCOW CLEAR     51  33  50 E13       30.10F
LEWISTON       CLEAR     50  37  61 E9        30.08F
LOWELL           N/A     41  37  86 NW6       30.22S

...COLUMBIA BASIN...

CITY           SKY/WX    TMP DP  RH WIND       PRES   REMARKS
EPHRATA        CLEAR     49  35  58 N10       30.04F
MOSES LAKE     CLEAR     47  35  63 N8        30.05F
TRI CITIES     CLEAR     42  39  89 CALM      30.03F
HERMISTON      CLEAR     43  36  76 CALM      30.00F
PENDLETON      CLEAR     52  33  48 CALM      30.01F

...EAST SLOPES CASCADES...

CITY           SKY/WX    TMP DP  RH WIND       PRES   REMARKS
THE DALLES     CLEAR     48  40  73 E5        30.02S
YAKIMA         CLEAR     46  38  73 W7        30.05F
ELLENSBURG     CLEAR     42  35  76 CALM      30.05F
WENATCHEE      CLEAR     51  39  63 N5        30.06F
OMAK           CLEAR     45  37  73 W3        30.08F

...SOUTHERN BRITISH COLUMBIA...

CITY           SKY/WX    TMP DP  RH WIND       PRES   REMARKS
PENTICTON      PTCLDY    43  37  81 VRB2      30.06F
CRANBROOK      MOCLDY    43  32  65 W7        30.19F

...WESTERN MONTANA...

CITY           SKY/WX    TMP DP  RH WIND       PRES   REMARKS
MISSOULA       PTCLDY    38  32  79 CALM      30.25S

...NEIGHBORING CITIES...

CITY           SKY/WX    TMP DP  RH WIND       PRES   REMARKS
SEATTLE        PTCLDY    58  49  72 S12       30.02R
CALGARY        PTCLDY    43  30  61 S5        30.07F



USA.gov is the U.S. government's official web portal to all federal, state and local government web resources and services.